FENGYUN 2G

Last updated on Thu Nov 21 2024 00:02:19 GMT+0000 (Coordinated Universal Time)

1 40367U 14090A 24325.54813602 -.00000300 00000+0 00000+0 0 9991 2 40367 4.1781 79.7273 0002429 186.0477 91.2219 1.00268048 36246
UTC large
Height (km)
Speed (km/s)
/
Latitude / Longitude
Inclination (degrees)
Orbital Period (minutes)
Azimuth
Elevation
Range (km)
Doppler Factor

Next 0 passes for location: London (51.5072 / 0.1276)

Sorry there are no passes over London.